N1JOT Weather Reports


Display with metric or nautical units.
time (UTC)temp
F
wind
direction
speed
MPH
gust
MPH
rain 1hr
in
rain 24hr
in
rain mn
in
humidity
%
barometer
mb
20260505195559 68 290 5.0 19.0 0.00 0.00 0.00 58 1009.4
20260505195100 69 132 5.0 19.0 0.00 0.00 0.00 57 1009.4
20260505194600 69 0 3.0 12.0 0.00 0.00 0.00 57 1009.7
20260505194101 69 169 4.0 12.0 0.00 0.00 0.00 56 1009.6
20260505193604 70 177 4.0 12.0 0.00 0.00 0.00 55 1009.8
20260505193101 71 223 3.0 10.0 0.00 0.00 0.00 53 1009.7
20260505192600 72 216 2.0 10.0 0.00 0.00 0.00 53 1009.6
20260505192100 72 0 4.0 9.0 0.00 0.00 0.00 53 1009.5
20260505191558 72 313 3.0 12.0 0.00 0.00 0.00 53 1009.5
20260505191100 71 153 4.0 16.0 0.00 0.00 0.00 54 1009.5
20260505190600 72 197 3.0 16.0 0.00 0.00 0.00 54 1009.6
20260505190058 72 207 3.0 13.0 0.00 0.00 0.00 51 1009.7
20260505185600 74 127 1.0 11.0 0.00 0.00 0.00 51 1009.7
20260505185100 73 231 2.0 11.0 0.00 0.00 0.00 50 1009.7
20260505184600 74 198 2.0 7.0 0.00 0.00 0.00 50 1009.7
20260505184100 75 121 1.0 6.0 0.00 0.00 0.00 51 1009.8
20260505183559 75 189 2.0 13.0 0.00 0.00 0.00 50 1009.8
20260505183106 74 167 2.0 13.0 0.00 0.00 0.00 50 1009.7
20260505182600 73 0 2.0 11.0 0.00 0.00 0.00 50 1009.8
20260505182102 73 215 2.0 10.0 0.00 0.00 0.00 52 1009.8
20260505181600 73 146 3.0 14.0 0.00 0.00 0.00 53 1010.0
20260505181100 72 192 4.0 14.0 0.00 0.00 0.00 51 1009.8
20260505180600 73 224 3.0 11.0 0.00 0.00 0.00 50 1010.0
20260505180105 74 211 1.0 8.0 0.00 0.00 0.00 52 1010.0
20260505175600 73 188 2.0 8.0 0.00 0.00 0.00 51 1010.1
20260505175100 73 312 3.0 16.0 0.00 0.00 0.00 50 1010.3
20260505174605 72 222 4.0 16.0 0.00 0.00 0.00 53 1010.4
20260505174059 72 181 2.0 15.0 0.00 0.00 0.00 53 1010.6
20260505173600 72 221 5.0 15.0 0.00 0.00 0.00 53 1010.6
20260505173058 73 246 1.0 14.0 0.00 0.00 0.00 53 1010.7
20260505172556 72 150 2.0 9.0 0.00 0.00 0.00 52 1010.6
20260505172100 73 207 2.0 12.0 0.00 0.00 0.00 54 1010.6
20260505171600 72 132 3.0 12.0 0.00 0.00 0.00 55 1010.6
20260505171104 71 213 4.0 12.0 0.00 0.00 0.00 54 1010.6
20260505170600 72 258 2.0 7.0 0.00 0.00 0.00 53 1010.7
20260505170059 72 183 2.0 7.0 0.00 0.00 0.00 54 1010.6
20260505165600 72 120 2.0 9.0 0.00 0.00 0.00 55 1010.7
20260505165101 71 0 2.0 10.0 0.00 0.00 0.00 55 1010.7
20260505164605 71 194 3.0 11.0 0.00 0.00 0.00 57 1010.9
20260505164057 71 152 3.0 11.0 0.00 0.00 0.00 56 1010.9
20260505163557 71 201 2.0 7.0 0.00 0.00 0.00 55 1011.0
20260505163100 72 225 2.0 7.0 0.00 0.00 0.00 54 1011.0
20260505162600 71 129 2.0 8.0 0.00 0.00 0.00 58 1011.0
20260505162100 71 176 2.0 8.0 0.00 0.00 0.00 56 1011.0
20260505161606 72 190 1.0 12.0 0.00 0.00 0.00 56 1011.0
20260505161100 70 224 2.0 12.0 0.00 0.00 0.00 57 1011.1
20260505160602 72 197 2.0 7.0 0.00 0.00 0.00 55 1011.1
20260505153108 74 0 1.0 6.0 0.00 0.00 0.00 53 1011.0
20260505152557 73 67 0.0 6.0 0.00 0.00 0.00 54 1011.0
20260505152059 72 180 1.0 6.0 0.00 0.00 0.00 55 1011.0
20260505151611 71 238 1.0 5.0 0.00 0.00 0.00 56 1011.1
20260505151059 71 244 0.0 6.0 0.00 0.00 0.00 58 1011.1
20260505150600 70 268 1.0 7.0 0.00 0.00 0.00 59 1011.0
20260505140600 66 0 1.0 6.0 0.00 0.00 0.00 64 1011.4
20260505140115 66 162 1.0 6.0 0.00 0.00 0.00 65 1011.3
20260505124609 60 0 1.0 7.0 0.00 0.00 0.00 73 1011.7
20260505124102 60 178 0.0 6.0 0.00 0.00 0.00 74 1011.7
20260505123600 59 186 2.0 6.0 0.00 0.00 0.00 73 1011.7
20260505123058 59 198 0.0 7.0 0.00 0.00 0.00 74 1011.8
20260505122601 59 0 1.0 8.0 0.00 0.00 0.00 75 1011.6
20260505122101 58 175 2.0 8.0 0.00 0.00 0.00 75 1011.5
20260505121601 58 180 1.0 6.0 0.00 0.00 0.00 75 1011.5
20260505121100 58 161 1.0 6.0 0.00 0.00 0.00 75 1011.4
20260505120600 58 67 0.0 5.0 0.00 0.00 0.00 77 1011.4
20260505120104 57 180 1.0 5.0 0.00 0.00 0.00 77 1011.6
20260505115604 57 182 1.0 8.0 0.00 0.00 0.00 78 1011.5
20260505115100 56 0 1.0 8.0 0.00 0.00 0.00 79 1011.5
20260505114605 56 172 0.0 4.0 0.00 0.00 0.00 79 1011.5
20260505114101 56 209 0.0 4.0 0.00 0.00 0.00 80 1011.5
20260505113600 55 153 0.0 8.0 0.00 0.00 0.00 81 1011.5
20260505113123 55 225 1.0 8.0 0.00 0.00 0.00 82 1011.5
20260505112600 55 101 2.0 6.0 0.00 0.00 0.00 82 1011.4
20260505112100 54 0 2.0 6.0 0.00 0.00 0.00 83 1011.5
20260505111605 54 0 2.0 7.0 0.00 0.00 0.00 85 1011.3
20260505111059 53 190 1.0 7.0 0.00 0.00 0.00 86 1011.5
20260505110559 53 0 0.0 0.0 0.00 0.00 0.00 87 1011.4
20260505102134 49 0 0.0 3.0 0.00 0.00 0.00 92 1011.2
20260505101600 48 0 0.0 3.0 0.00 0.00 0.00 92 1011.1
20260505101100 48 0 0.0 3.0 0.00 0.00 0.00 92 1011.0
20260505100600 48 0 0.0 0.0 0.00 0.00 0.00 92 1011.1
20260505100100 48 0 0.0 0.0 0.00 0.00 0.00 91 1011.1
20260505095600 48 0 0.0 0.0 0.00 0.00 0.00 92 1011.1
20260505095058 48 0 0.0 0.0 0.00 0.00 0.00 92 1011.1
20260505094559 47 0 0.0 0.0 0.00 0.00 0.00 91 1011.1
20260505094059 48 0 0.0 0.0 0.00 0.00 0.00 91 1011.2
20260505093600 48 0 0.0 0.0 0.00 0.00 0.00 91 1011.2
20260505093102 48 0 0.0 0.0 0.00 0.00 0.00 91 1011.2
20260505092559 48 0 0.0 0.0 0.00 0.00 0.00 91 1011.3
20260505092100 47 0 0.0 0.0 0.00 0.00 0.00 91 1011.5
20260505091608 48 0 0.0 0.0 0.00 0.00 0.00 91 1011.4
20260505091102 48 0 0.0 0.0 0.00 0.00 0.00 91 1011.4
20260505090559 47 0 0.0 0.0 0.00 0.00 0.00 91 1011.5
20260505090059 47 0 0.0 0.0 0.00 0.00 0.00 91 1011.5
20260505085600 47 0 0.0 1.0 0.00 0.00 0.00 91 1011.4
20260505085058 47 0 0.0 1.0 0.00 0.00 0.00 91 1011.5
20260505084559 47 0 0.0 1.0 0.00 0.00 0.00 91 1011.5
20260505084100 47 0 0.0 1.0 0.00 0.00 0.00 91 1011.5
20260505083559 47 0 0.0 1.0 0.00 0.00 0.00 91 1011.5
20260505083103 47 0 0.0 0.0 0.00 0.00 0.00 91 1011.6
20260505082558 47 0 0.0 0.0 0.00 0.00 0.00 91 1011.5
20260505082058 47 0 0.0 0.0 0.00 0.00 0.00 90 1011.5
20260505081607 47 0 0.0 0.0 0.00 0.00 0.00 90 1011.5
20260505081058 48 0 0.0 0.0 0.00 0.00 0.00 90 1011.3
20260505080558 48 0 0.0 0.0 0.00 0.00 0.00 90 1011.4
20260505075601 48 0 0.0 2.0 0.00 0.00 0.00 90 1011.6
20260505075059 48 0 0.0 2.0 0.00 0.00 0.00 90 1011.6
20260505074559 48 184 0.0 2.0 0.00 0.00 0.00 90 1011.6
20260505074058 48 0 0.0 2.0 0.00 0.00 0.00 90 1011.6
20260505073558 47 180 0.0 2.0 0.00 0.00 0.00 89 1011.6
20260505073129 47 186 0.0 2.0 0.00 0.00 0.00 90 1011.7
20260505072558 47 0 0.0 2.0 0.00 0.00 0.00 89 1011.6
20260505072101 47 0 0.0 3.0 0.00 0.00 0.00 89 1011.7
20260505071604 47 0 0.0 3.0 0.00 0.00 0.00 89 1011.7
20260505071058 48 0 0.0 2.0 0.00 0.00 0.00 89 1011.7
20260505070558 48 0 0.0 2.0 0.00 0.00 0.00 88 1011.7
20260505070104 48 0 0.0 2.0 0.00 0.00 0.00 89 1011.7
20260505065601 48 0 0.0 2.0 0.00 0.00 0.00 89 1011.7
20260505065057 48 0 0.0 2.0 0.00 0.00 0.00 88 1011.7
20260505064559 48 0 0.0 2.0 0.00 0.00 0.00 88 1011.7
20260505064059 48 0 0.0 1.0 0.00 0.00 0.00 88 1011.8
20260505063559 48 0 0.0 3.0 0.00 0.00 0.00 88 1011.8
20260505063057 48 0 0.0 3.0 0.00 0.00 0.00 88 1011.8
20260505062600 48 0 0.0 3.0 0.00 0.00 0.00 88 1011.8
20260505062100 48 0 0.0 2.0 0.00 0.00 0.00 88 1011.8
20260505061601 48 0 0.0 2.0 0.00 0.00 0.00 87 1011.8
20260505061058 48 0 0.0 2.0 0.00 0.00 0.00 87 1011.8
20260505060558 48 0 0.0 3.0 0.00 0.00 0.00 86 1011.7
20260505060059 48 0 0.0 3.0 0.00 0.00 0.00 86 1011.7
20260505055600 49 0 0.0 2.0 0.00 0.00 0.00 86 1011.8
20260505055100 49 0 0.0 2.0 0.00 0.00 0.00 86 1011.8
20260505054600 49 0 0.0 2.0 0.00 0.00 0.00 86 1011.8
20260505054100 49 0 0.0 2.0 0.00 0.00 0.00 85 1011.8
20260505053559 49 0 0.0 2.0 0.00 0.00 0.00 85 1011.8
20260505053101 49 0 0.0 2.0 0.00 0.00 0.00 85 1011.8
20260505052557 49 0 0.0 1.0 0.00 0.00 0.00 85 1011.8
20260505052058 49 0 0.0 1.0 0.00 0.00 0.00 85 1011.8
20260505051607 49 0 0.0 2.0 0.00 0.00 0.00 85 1011.8
20260505051058 49 0 0.0 2.0 0.00 0.00 0.00 85 1011.9
20260505050557 49 0 0.0 2.0 0.00 0.00 0.00 84 1011.9
20260505050105 49 207 0.0 3.0 0.00 0.00 0.00 84 1011.9
20260505041603 50 0 0.0 3.0 0.00 0.00 0.00 82 1012.2
20260505041058 50 0 0.0 3.0 0.00 0.00 0.00 82 1012.2
20260505040558 50 190 0.0 3.0 0.00 0.00 0.00 82 1012.2
20260505035559 50 201 0.0 2.0 0.00 0.00 0.00 81 1012.2
20260505035101 50 0 0.0 5.0 0.00 0.00 0.00 81 1012.1
20260505034603 50 0 0.0 5.0 0.00 0.00 0.00 81 1012.1
20260505034100 50 227 0.0 3.0 0.00 0.00 0.00 80 1012.0
20260505033600 50 0 0.0 3.0 0.00 0.00 0.00 80 1012.1
20260505033100 51 0 1.0 3.0 0.00 0.00 0.00 80 1012.2
20260505032558 51 184 0.0 2.0 0.00 0.00 0.00 79 1012.1
20260505032059 51 194 0.0 4.0 0.00 0.00 0.00 79 1012.1
20260505031601 51 0 0.0 4.0 0.00 0.00 0.00 78 1012.1
20260505031059 51 0 0.0 2.0 0.00 0.00 0.00 78 1012.2
20260505030601 51 0 0.0 2.0 0.00 0.00 0.00 78 1012.3
20260505030100 51 0 0.0 2.0 0.00 0.00 0.00 78 1012.4
20260505025559 51 186 0.0 2.0 0.00 0.00 0.00 78 1012.4
20260505025058 51 0 0.0 2.0 0.00 0.00 0.00 78 1012.4
20260505024607 51 0 0.0 2.0 0.00 0.00 0.00 77 1012.3
20260505024058 51 184 0.0 3.0 0.00 0.00 0.00 77 1012.3
20260505023600 51 0 0.0 4.0 0.00 0.00 0.00 77 1012.3
20260505023102 52 0 1.0 4.0 0.00 0.00 0.00 76 1012.3
20260505022558 52 0 0.0 4.0 0.00 0.00 0.00 75 1012.3
20260505022058 52 196 0.0 4.0 0.00 0.00 0.00 75 1012.4
20260505021559 52 188 0.0 5.0 0.00 0.00 0.00 74 1012.4
20260505021059 52 207 0.0 5.0 0.00 0.00 0.00 74 1012.4
20260505020557 53 0 0.0 4.0 0.00 0.00 0.00 73 1012.4
20260505020100 53 0 0.0 4.0 0.00 0.00 0.00 73 1012.3
20260505015559 53 0 0.0 3.0 0.00 0.00 0.00 72 1012.3
20260505015101 53 187 0.0 6.0 0.00 0.00 0.00 72 1012.3
20260505014559 53 0 1.0 6.0 0.00 0.00 0.00 72 1012.3
20260505014102 54 157 1.0 4.0 0.00 0.00 0.00 71 1012.3
20260505013602 54 182 0.0 4.0 0.00 0.00 0.00 71 1012.2
20260505013126 54 0 1.0 5.0 0.00 0.00 0.00 70 1012.1
20260505012558 54 220 1.0 5.0 0.00 0.00 0.00 70 1012.0
20260505012100 54 0 0.0 6.0 0.00 0.00 0.00 69 1012.1
20260505011622 54 159 0.0 6.0 0.00 0.00 0.00 69 1012.0
20260505011059 55 202 2.0 6.0 0.00 0.00 0.00 68 1011.8
20260505010557 55 219 1.0 6.0 0.00 0.00 0.00 68 1011.6
20260505010113 55 189 1.0 6.0 0.00 0.00 0.00 68 1011.7
20260505005558 55 212 1.0 5.0 0.00 0.00 0.00 68 1011.5
20260505005058 55 216 1.0 5.0 0.00 0.00 0.00 67 1011.3
20260505004559 55 193 1.0 5.0 0.00 0.00 0.00 67 1011.3
20260505004057 55 169 2.0 5.0 0.00 0.00 0.00 67 1011.2
20260505003601 55 200 1.0 6.0 0.00 0.00 0.00 66 1011.2
20260505003104 55 0 1.0 6.0 0.00 0.00 0.00 66 1011.1
20260505002557 55 205 1.0 5.0 0.00 0.00 0.00 65 1011.0
20260505002100 55 0 0.0 5.0 0.00 0.00 0.00 65 1010.9
20260505001600 56 176 1.0 5.0 0.00 0.00 0.00 64 1010.9
20260505001058 56 177 0.0 9.0 0.00 0.00 0.00 62 1010.8
20260505000559 56 188 0.0 9.0 0.00 0.00 0.00 61 1010.7
20260505000107 57 181 0.0 8.0 0.00 0.00 0.00 61 1010.6
20260504235600 57 0 2.0 8.0 0.00 0.00 0.00 59 1010.4
20260504235102 57 195 1.0 7.0 0.00 0.00 0.00 58 1010.4
20260504234600 57 0 2.0 7.0 0.00 0.00 0.00 57 1010.2
20260504234100 58 151 1.0 10.0 0.00 0.00 0.00 57 1010.1
20260504233557 58 171 1.0 10.0 0.00 0.00 0.00 57 1010.1
20260504233106 58 207 2.0 12.0 0.00 0.00 0.00 56 1010.2
20260504232559 58 198 2.0 12.0 0.00 0.00 0.00 55 1010.0
20260504232100 58 182 0.0 7.0 0.00 0.00 0.00 55 1009.9
20260504231557 59 182 1.0 7.0 0.00 0.00 0.00 55 1009.8
20260504231101 59 196 1.0 6.0 0.00 0.00 0.00 54 1009.8
20260504230603 59 187 2.0 9.0 0.00 0.00 0.00 53 1009.7
20260504230107 60 162 2.0 9.0 0.00 0.00 0.00 52 1009.6
20260504225559 60 148 2.0 7.0 0.00 0.00 0.00 52 1009.7
20260504225059 60 190 2.0 9.0 0.00 0.00 0.00 50 1009.6
20260504224603 61 163 3.0 9.0 0.00 0.00 0.00 49 1009.4
20260504224058 61 215 3.0 9.0 0.00 0.00 0.00 49 1009.3
20260504223600 62 248 3.0 9.0 0.00 0.00 0.00 48 1009.2
20260504223105 62 165 2.0 12.0 0.00 0.00 0.00 47 1009.3
20260504222603 62 211 2.0 12.0 0.00 0.00 0.00 48 1009.1
20260504222100 63 205 2.0 9.0 0.00 0.00 0.00 47 1009.1
20260504221607 63 206 2.0 10.0 0.00 0.00 0.00 47 1009.1
20260504221100 63 184 4.0 10.0 0.00 0.00 0.00 48 1009.1
20260504220559 63 176 2.0 9.0 0.00 0.00 0.00 50 1009.1
20260504215559 63 159 4.0 12.0 0.00 0.00 0.00 48 1009.2
20260504215057 63 0 1.0 15.0 0.00 0.00 0.00 49 1009.0
20260504214614 64 200 1.0 16.0 0.00 0.00 0.00 47 1009.0
20260504214058 64 170 2.0 16.0 0.00 0.00 0.00 47 1009.0
20260504213603 64 129 2.0 6.0 0.00 0.00 0.00 47 1009.0
20260504213130 64 215 1.0 9.0 0.00 0.00 0.00 48 1008.9
20260504212602 64 180 2.0 9.0 0.00 0.00 0.00 47 1009.0
20260504212102 65 225 1.0 11.0 0.00 0.00 0.00 46 1008.9
20260504211612 65 158 3.0 20.0 0.00 0.00 0.00 45 1008.9
20260504211101 65 117 2.0 20.0 0.00 0.00 0.00 44 1008.9
20260504210604 65 161 4.0 19.0 0.00 0.00 0.00 44 1008.7
20260504205604 66 200 2.0 20.0 0.00 0.00 0.00 41 1008.8
20260504205102 66 209 3.0 24.0 0.00 0.00 0.00 43 1008.8
20260504204607 66 223 3.0 24.0 0.00 0.00 0.00 40 1008.7
20260504204102 66 207 4.0 12.0 0.00 0.00 0.00 40 1008.7
20260504203600 67 93 4.0 11.0 0.00 0.00 0.00 39 1008.7
20260504203106 67 164 3.0 13.0 0.00 0.00 0.00 40 1008.6
20260504202602 67 243 4.0 13.0 0.00 0.00 0.00 38 1008.7
20260504202103 68 194 3.0 12.0 0.00 0.00 0.00 38 1008.6
20260504201630 69 261 2.0 12.0 0.00 0.00 0.00 39 1008.6
20260504201101 68 158 2.0 13.0 0.00 0.00 0.00 38 1008.5
20260504200602 67 74 5.0 14.0 0.00 0.00 0.00 37 1008.6
20260504200114 68 212 4.0 18.0 0.00 0.00 0.00 37 1008.7